Location: Peebles
(55.6412°N, 3.1714°W)
Time: 15:12:54
(UTC+01:00)

FLOCK 4S 45 - Pass Details

Date: 09 July 2022
Orbit: 507 x 523 km, 97.4° (Epoch: 17 August)

Event Time Altitude Azimuth Distance (km) Brightness Sun altitude
Rises 23:22:19 0° 216° (SW) 2,654 ? -8.3°
Reaches altitude 10° 23:25:28 10° 246° (WSW) 1,770 ? -8.5°
Maximum altitude 23:27:16 13° 274° (W) 1,594 ? -8.6°
Drops below altitude 10° 23:29:04 10° 302° (WNW) 1,774 ? -8.7°
Sets 23:32:15 0° 331° (NNW) 2,666 ? -8.9°
